Powrót do katalogu

STARLINK-36168

AktywnyŁącznośćSSO
NORAD 68677·PAYLOAD·🇺🇸 United States

Wystrzelony Apr 11, 2026 z Vandenberg Space Force Base

Loading…

Następne Przeloty (najbliższe 24 godziny)

TLE

ŚwieżeSource: CelesTrak SupGP

Epoka: Sep 14, 2026, 22:41 UTC

1 68677C 26077R   26257.94562500  .00056282  00000+0  17477-2 0  2576
2 68677  97.2845 127.9362 0001742  96.2287 240.3241 15.33400521    10

Śledź STARLINK-36168 w czasie rzeczywistym z AllMySat

Download on the App Store